Salamanca, Spain

5:12 PM CEST on September 21, 2017 (GMT +0200)
Matacan

Weather History for LESA - December, 2013

Change the Weather History Date:

Wednesday, December 18, 2013

  Actual Average Record
Temperature  
Mean Temperature 45 °F -  
Max Temperature 49 °F - - ()
Min Temperature 41 °F - - ()
Degree Days  
Heating Degree Days 20    
Moisture  
Dew Point 42 °F    
Average Humidity 92    
Maximum Humidity 100    
Minimum Humidity 72    
Precipitation  
Precipitation 0.04 in 0.05 in - ()
Sea Level Pressure  
Sea Level Pressure 30.24 in    
Wind  
Wind Speed 4 mph ()    
Max Wind Speed 17 mph    
Max Gust Speed -    
Visibility 4.3 miles    
Events Fog , Rain    
T = Trace of Precipitation, MM = Missing Value Source: Averaged Metar Reports

Daily Weather History Graph

Daily Weather History Graph

Search for Another Location

Airport or City:

Trip Planner

Search our weather history database for the weather conditions in past years. The results will help you decide how hot, cold, wet, or windy it might be!

Date:

Astronomy

Dec. 18, 2013 Rise Set
Actual Time 8:41 AM CET 5:55 PM CET
Civil Twilight 8:10 AM CET 6:26 PM CET
Nautical Twilight 7:35 AM CET 7:01 PM CET
Astronomical Twilight 7:02 AM CET 7:34 PM CET
Moon 7:15 PM CET (12/18) 9:11 AM CET (12/18)
Length of Visible Light 10h 16m
Length of Day
9h 14m
Full, 99% of the Moon is Illuminated
Dec 18
Full
Dec 25
Last Quarter
Jan 1
New
Jan 8
First Quarter
Jan 16
Full

Hourly Weather History & Observations

Time (CET) Temp. Windchill Dew Point Humidity Pressure Visibility Wind Dir Wind Speed Gust Speed Precip Events Conditions
12:00 AM 42 °F - 40 °F 92%  in - SSE 3.5 mph - -  
12:00 AM 42.8 °F 41.1 °F 41.0 °F 93% 30.30 in 6.2 mi SSE 3.5 mph - N/A   Mostly Cloudy
12:30 AM 41.0 °F - 41.0 °F 100% 30.30 in 6.2 mi Calm Calm - N/A   Mostly Cloudy
1:00 AM 42 °F - 41 °F 93%  in 5 mi Calm Calm - -   Overcast
1:00 AM 41.0 °F - 41.0 °F 100% 30.30 in 5.0 mi Calm Calm - N/A   Mostly Cloudy
1:30 AM 41.0 °F - 41.0 °F 100% 30.30 in 3.7 mi Calm Calm - N/A   Mostly Cloudy
2:00 AM 42 °F - 41 °F 95%  in - SE 3.5 mph - -   Unknown Precipitation
2:00 AM 41.0 °F 39.0 °F 41.0 °F 100% 30.27 in 1.9 mi SE 3.5 mph - N/A   Mostly Cloudy
2:30 AM 42.8 °F - 41.0 °F 93% 30.27 in 1.9 mi Calm Calm - N/A   Mostly Cloudy
3:00 AM 42 °F - 42 °F 99%  in - SW 3.5 mph - -   Unknown Precipitation
3:00 AM 42.8 °F - 42.8 °F 100% 30.27 in 1.9 mi Variable 2.3 mph - N/A   Mostly Cloudy
3:30 AM 42.8 °F 41.1 °F 42.8 °F 100% 30.27 in 1.9 mi WSW 3.5 mph - N/A   Mostly Cloudy
4:00 AM 43 °F - 42 °F 97%  in 4 mi WSW 4.6 mph - -   Overcast
4:00 AM 42.8 °F 41.1 °F 42.8 °F 100% 30.27 in 3.7 mi West 3.5 mph - N/A   Mostly Cloudy
4:30 AM 42.8 °F - 42.8 °F 100% 30.27 in 3.7 mi Variable 2.3 mph - N/A   Mostly Cloudy
5:00 AM 43 °F - 42 °F 92%  in - Calm Calm - -   Unknown Precipitation
5:00 AM 42.8 °F - 41.0 °F 93% 30.27 in 4.3 mi Calm Calm - N/A   Mostly Cloudy
5:30 AM 42.8 °F - 42.8 °F 100% 30.27 in 4.3 mi Calm Calm - N/A   Mostly Cloudy
6:00 AM 43 °F - 42 °F 92%  in - Calm Calm - -   Unknown Precipitation
6:00 AM 42.8 °F - 42.8 °F 100% 30.27 in 4.3 mi Calm Calm - N/A   Mostly Cloudy
6:30 AM 42.8 °F - 41.0 °F 93% 30.27 in 4.3 mi Calm Calm - N/A   Mostly Cloudy
7:00 AM 43 °F - 42 °F 94%  in 4 mi Calm Calm - -   Partly Cloudy
7:00 AM 42.8 °F - 42.8 °F 100% 30.27 in 3.7 mi Calm Calm - N/A   Mostly Cloudy
7:30 AM 42.8 °F - 42.8 °F 100% 30.27 in 1.2 mi Calm Calm - N/A   Mostly Cloudy
7:42 AM 42.8 °F - 42.8 °F 100% 30.27 in 0.2 mi Calm Calm - N/A Fog Patches of Fog
8:00 AM 43 °F - 42 °F 94%  in - Calm Calm - -  
8:00 AM 42.8 °F - 42.8 °F 100% 30.27 in 0.8 mi Calm Calm - N/A Fog Patches of Fog
9:00 AM 42 °F - 42 °F 99%  in - Calm Calm - -  
9:00 AM 42.8 °F - 42.8 °F 100% 30.27 in 0.1 mi Calm Calm - N/A Fog Fog
9:30 AM 42.8 °F - 42.8 °F 100% 30.27 in 0.1 mi Calm Calm - N/A Fog Fog
10:30 AM 42.8 °F - 42.8 °F 100% 30.27 in 0.7 mi Calm Calm - N/A   Overcast
11:00 AM 44 °F - 44 °F 97%  in - Calm Calm - -   Unknown Precipitation
11:00 AM 44.6 °F - 44.6 °F 100% 30.30 in 1.0 mi Calm Calm - N/A   Overcast
11:30 AM 44.6 °F 43.1 °F 44.6 °F 100% 30.30 in 1.6 mi WNW 3.5 mph - N/A   Overcast
12:00 PM 46 °F - 44 °F 88%  in - West 4.6 mph - -  
12:00 PM 44.6 °F 43.1 °F 44.6 °F 100% 30.27 in 3.1 mi West 3.5 mph - N/A   Mostly Cloudy
12:30 PM 46.4 °F 42.4 °F 44.6 °F 93% 30.27 in 6.2 mi West 8.1 mph - N/A   Mostly Cloudy
1:00 PM 48 °F - 43 °F 76%  in 7 mi West 9.2 mph - -   Partly Cloudy
1:00 PM 48.2 °F - 42.8 °F 82% 30.24 in 6.2 mi West 8.1 mph - N/A   Mostly Cloudy
1:30 PM 48.2 °F - 42.8 °F 82% 30.21 in 6.2 mi West 8.1 mph - N/A   Scattered Clouds
2:00 PM 49 °F - 43 °F 72%  in - West 8.1 mph - -  
2:00 PM 48.2 °F - 44.6 °F 87% 30.21 in 6.2 mi West 8.1 mph - N/A   Scattered Clouds
2:30 PM 50.0 °F - 42.8 °F 76% 30.21 in 6.2 mi West 8.1 mph - N/A   Scattered Clouds
3:00 PM 49 °F - 43 °F 72%  in - WSW 8.1 mph - -  
3:00 PM 48.2 °F - 42.8 °F 82% 30.18 in 6.2 mi West 8.1 mph - N/A   Scattered Clouds
3:30 PM 48.2 °F - 41.0 °F 76% 30.21 in 6.2 mi WSW 12.7 mph - N/A   Scattered Clouds
4:00 PM 46 °F - 41 °F 75%  in 5 mi WSW 13.8 mph - - Rain Light Rain
4:00 PM 46.4 °F 40.4 °F 41.0 °F 81% 30.24 in 5.0 mi WSW 13.8 mph - N/A Rain Light Rain
4:30 PM 44.6 °F 39.2 °F 42.8 °F 93% 30.24 in 5.0 mi WSW 10.4 mph - N/A Rain Light Rain
5:00 PM 44 °F - 41 °F 87%  in - WSW 8.1 mph - -   Unknown Precipitation
5:00 PM 44.6 °F 40.2 °F 41.0 °F 87% 30.24 in 5.0 mi WSW 8.1 mph - N/A Rain Light Rain
5:30 PM 44.6 °F - 42.8 °F 93% 30.24 in 3.7 mi Variable 2.3 mph - N/A Rain Light Rain
6:00 PM 44 °F - 42 °F 89%  in - SW 5.8 mph - -   Unknown Precipitation
6:00 PM 42.8 °F 40.1 °F 42.8 °F 100% 30.24 in 2.2 mi SW 4.6 mph - N/A   Overcast
6:30 PM 42.8 °F 38.0 °F 41.0 °F 93% 30.24 in 2.2 mi SW 8.1 mph - N/A   Overcast
7:00 PM 43 °F - 41 °F 89%  in 5 mi SSW 10.4 mph - -   Mist
7:00 PM 42.8 °F 37.5 °F 41.0 °F 93% 30.21 in 5.0 mi SSW 9.2 mph - N/A   Overcast
7:30 PM 42.8 °F 37.0 °F 41.0 °F 93% 30.21 in 6.2 mi SSW 10.4 mph - N/A   Overcast
8:00 PM 42 °F - 40 °F 89%  in - SSW 12.7 mph - -  
8:00 PM 42.8 °F 36.6 °F 41.0 °F 93% 30.21 in 6.2 mi SW 11.5 mph - N/A   Overcast
8:30 PM 42.8 °F 36.6 °F 41.0 °F 93% 30.18 in 6.2 mi SW 11.5 mph - N/A   Overcast
9:00 PM 43 °F - 40 °F 85%  in - SSW 13.8 mph - -  
9:00 PM 42.8 °F 36.2 °F 41.0 °F 93% 30.18 in 6.2 mi SW 12.7 mph - N/A   Mostly Cloudy
9:30 PM 42.8 °F 36.2 °F 41.0 °F 93% 30.18 in 6.2 mi SSW 12.7 mph - N/A   Mostly Cloudy
10:00 PM 43 °F - 40 °F 86%  in 7 mi SW 10.4 mph - -   Mostly Cloudy
10:00 PM 42.8 °F 37.0 °F 41.0 °F 93% 30.18 in 6.2 mi SW 10.4 mph - N/A   Mostly Cloudy
10:30 PM 42.8 °F 36.2 °F 41.0 °F 93% 30.15 in 6.2 mi SW 12.7 mph - N/A   Mostly Cloudy
11:00 PM 44 °F - 41 °F 84%  in - SSW 17.3 mph - -  
11:00 PM 42.8 °F 35.1 °F 41.0 °F 93% 30.15 in 6.2 mi SW 16.1 mph - N/A   Mostly Cloudy
11:30 PM 44.6 °F 37.8 °F 41.0 °F 87% 30.15 in 6.2 mi SW 15.0 mph - N/A   Mostly Cloudy